This demonstration page uses our WeatherBlox Daily Observations layout. Learn more.

Left ArrowRight Arrow

39.12711, -84.51439

Hourly Observations for March 14, 2021

Temp ( °F °C ) Dew Point ( °F °C ) Humidity (%) Winds ( mph kmh ) Pressure ( in mb ) Visibility ( mi km ) Precip ( " mm )
12:53 am 00:53 Clear 34 1.1 30 -1.1 85 85 Calm 30.34 1028 10 16.0934 0 0
1:53 am 01:53 Clear 31 -0.6 29 -1.7 92 92 NE 3 6 30.33 1027 10 16.0934 0 0
3:53 am 03:53 Clear 31 -0.6 28 -2.2 89 89 E 3 6 30.29 1026 10 16.0934 0 0
4:53 am 04:53 Clear 31 -0.6 28 -2.2 89 89 Calm 30.29 1026 9 14.48406 0 0
5:53 am 05:53 Clear 30 -1.1 28 -2.2 92 92 Calm 30.29 1026 8 12.87472 0 0
6:53 am 06:53 Clear 31 -0.6 28 -2.2 89 89 Calm 30.3 1026 9 14.48406 0 0
7:53 am 07:53 Sunny 31 -0.6 28 -2.2 89 89 Calm 30.32 1027 9 14.48406 0 0
8:53 am 08:53 Sunny 33 0.6 30 -1.1 89 89 Calm 30.3 1026 10 16.0934 0 0
9:53 am 09:53 Sunny 36 2.2 32 0 86 86 Calm 30.33 1027 10 16.0934 0 0
10:53 am 10:53 Sunny 40 4.4 33 0.6 77 77 Calm 30.35 1028 10 16.0934 0 0
11:53 am 11:53 Sunny 45 7.2 33 0.6 63 63 Calm 30.33 1027 10 16.0934 0 0
12:53 pm 12:53 Mostly Cloudy 49 9.4 30 -1.1 48 48 Calm 30.33 1027 10 16.0934 0 0
1:53 pm 13:53 Sunny 54 12.2 30 -1.1 40 40 Calm 30.32 1027 10 16.0934 0 0
2:53 pm 14:53 Sunny 54 12.2 27 -2.8 35 35 Calm 30.29 1026 10 16.0934 0 0
3:53 pm 15:53 Sunny 55 12.8 28 -2.2 35 35 Calm 30.27 1025 10 16.0934 0 0
4:53 pm 16:53 Sunny 56 13.3 30 -1.1 37 37 Calm 30.28 1025 10 16.0934 0 0
5:53 pm 17:53 Sunny 56 13.3 32 0 40 40 NNE 6 9 30.27 1025 10 16.0934 0 0
6:53 pm 18:53 Sunny 55 12.8 31 -0.6 40 40 NE 7 11 30.26 1025 10 16.0934 0 0
7:53 pm 19:53 Clear 52 11.1 32 0 47 47 E 3 6 30.29 1026 10 16.0934 0 0
8:53 pm 20:53 Clear 51 10.6 29 -1.7 43 43 ENE 13 20 30.32 1027 10 16.0934 0 0
9:53 pm 21:53 Clear 50 10 22 -5.6 33 33 ENE 13 20 30.33 1027 10 16.0934 0 0
10:53 pm 22:53 Clear 47 8.3 21 -6.1 36 36 ENE 15 24 30.35 1028 10 16.0934 0 0
11:53 pm 23:53 Clear 45 7.2 21 -6.1 39 39 ENE 12 19 30.36 1028 10 16.0934 0 0

Powered by AerisWeather